<?xml version="1.0" encoding="UTF-8"?>
<gpx
version="1.1"
creator="Kashmir3D 9.350 - http://www.kashmir3d.com"
xmlns:xsi="http://www.w3.org/2001/XMLSchema-instance"
xmlns="http://www.topografix.com/GPX/1/1"
xmlns:kashmir3d="http://www.kashmir3d.com/namespace/kashmir3d"
xsi:schemaLocation="http://www.topografix.com/GPX/1/1 http://www.topografix.com/GPX/1/1/gpx.xsd
	http://www.kashmir3d.com/namespace/kashmir3d http://www.kashmir3d.com/namespace/kashmir3d.xsd">
<trk>
 <name>OTOWAYAMA.KML(音羽山)</name>
 <number>1</number>
 <extensions>
 <kashmir3d:line_color>0000ff</kashmir3d:line_color>
 <kashmir3d:line_size>3</kashmir3d:line_size>
 <kashmir3d:line_style>1</kashmir3d:line_style>
 <kashmir3d:icon>901001</kashmir3d:icon>
 </extensions>
<trkseg>
<trkpt lat="34.994381" lon="135.853158">
 <ele>158</ele>
 <time>2020-03-24T13:32:48Z</time>
</trkpt>
<trkpt lat="34.994484" lon="135.853104">
 <ele>158.4</ele>
 <time>2020-03-24T13:32:49Z</time>
</trkpt>
<trkpt lat="34.994493" lon="135.853340">
 <ele>159.4</ele>
 <time>2020-03-24T13:32:49Z</time>
</trkpt>
<trkpt lat="34.994527" lon="135.853587">
 <ele>161.2</ele>
 <time>2020-03-24T13:32:49Z</time>
</trkpt>
<trkpt lat="34.994639" lon="135.853652">
 <ele>162.9</ele>
 <time>2020-03-24T13:32:49Z</time>
</trkpt>
<trkpt lat="34.994793" lon="135.853662">
 <ele>170</ele>
 <time>2020-03-24T13:32:49Z</time>
</trkpt>
<trkpt lat="34.994836" lon="135.853716">
 <ele>171.3</ele>
 <time>2020-03-24T13:32:49Z</time>
</trkpt>
<trkpt lat="34.994784" lon="135.853898">
 <ele>172.8</ele>
 <time>2020-03-24T13:32:49Z</time>
</trkpt>
<trkpt lat="34.994784" lon="135.854038">
 <ele>174</ele>
 <time>2020-03-24T13:32:50Z</time>
</trkpt>
<trkpt lat="34.994750" lon="135.854167">
 <ele>174.9</ele>
 <time>2020-03-24T13:32:50Z</time>
</trkpt>
<trkpt lat="34.994733" lon="135.854274">
 <ele>175.3</ele>
 <time>2020-03-24T13:32:50Z</time>
</trkpt>
<trkpt lat="34.994716" lon="135.854392">
 <ele>174.7</ele>
 <time>2020-03-24T13:32:50Z</time>
</trkpt>
<trkpt lat="34.994733" lon="135.854531">
 <ele>172</ele>
 <time>2020-03-24T13:32:50Z</time>
</trkpt>
<trkpt lat="34.994733" lon="135.854649">
 <ele>174.2</ele>
 <time>2020-03-24T13:32:50Z</time>
</trkpt>
<trkpt lat="34.994733" lon="135.854789">
 <ele>176.1</ele>
 <time>2020-03-24T13:32:50Z</time>
</trkpt>
<trkpt lat="34.994647" lon="135.854918">
 <ele>181</ele>
 <time>2020-03-24T13:32:50Z</time>
</trkpt>
<trkpt lat="34.994587" lon="135.855003">
 <ele>179.9</ele>
 <time>2020-03-24T13:32:50Z</time>
</trkpt>
<trkpt lat="34.994536" lon="135.855089">
 <ele>180</ele>
 <time>2020-03-24T13:32:51Z</time>
</trkpt>
<trkpt lat="34.994458" lon="135.855218">
 <ele>177.3</ele>
 <time>2020-03-24T13:32:51Z</time>
</trkpt>
<trkpt lat="34.994433" lon="135.855336">
 <ele>179.6</ele>
 <time>2020-03-24T13:32:51Z</time>
</trkpt>
<trkpt lat="34.994415" lon="135.855443">
 <ele>178.6</ele>
 <time>2020-03-24T13:32:51Z</time>
</trkpt>
<trkpt lat="34.994407" lon="135.855529">
 <ele>178.8</ele>
 <time>2020-03-24T13:32:51Z</time>
</trkpt>
<trkpt lat="34.994381" lon="135.855626">
 <ele>177.5</ele>
 <time>2020-03-24T13:32:51Z</time>
</trkpt>
<trkpt lat="34.994312" lon="135.855690">
 <ele>174.9</ele>
 <time>2020-03-24T13:32:51Z</time>
</trkpt>
<trkpt lat="34.994304" lon="135.855754">
 <ele>175.8</ele>
 <time>2020-03-24T13:32:51Z</time>
</trkpt>
<trkpt lat="34.994278" lon="135.855883">
 <ele>174.7</ele>
 <time>2020-03-24T13:32:51Z</time>
</trkpt>
<trkpt lat="34.994269" lon="135.856001">
 <ele>177.2</ele>
 <time>2020-03-24T13:32:51Z</time>
</trkpt>
<trkpt lat="34.994218" lon="135.856066">
 <ele>174.8</ele>
 <time>2020-03-24T13:32:52Z</time>
</trkpt>
<trkpt lat="34.994046" lon="135.856098">
 <ele>167</ele>
 <time>2020-03-24T13:32:52Z</time>
</trkpt>
<trkpt lat="34.993986" lon="135.856130">
 <ele>172.8</ele>
 <time>2020-03-24T13:32:52Z</time>
</trkpt>
<trkpt lat="34.993969" lon="135.856227">
 <ele>172</ele>
 <time>2020-03-24T13:32:52Z</time>
</trkpt>
<trkpt lat="34.993943" lon="135.856323">
 <ele>173.4</ele>
 <time>2020-03-24T13:32:52Z</time>
</trkpt>
<trkpt lat="34.993918" lon="135.856398">
 <ele>175.4</ele>
 <time>2020-03-24T13:32:52Z</time>
</trkpt>
<trkpt lat="34.993875" lon="135.856484">
 <ele>178.8</ele>
 <time>2020-03-24T13:32:52Z</time>
</trkpt>
<trkpt lat="34.993823" lon="135.856409">
 <ele>183.7</ele>
 <time>2020-03-24T13:32:52Z</time>
</trkpt>
<trkpt lat="34.993789" lon="135.856280">
 <ele>185.1</ele>
 <time>2020-03-24T13:32:52Z</time>
</trkpt>
<trkpt lat="34.993763" lon="135.856205">
 <ele>186.1</ele>
 <time>2020-03-24T13:32:52Z</time>
</trkpt>
<trkpt lat="34.993720" lon="135.856184">
 <ele>188.1</ele>
 <time>2020-03-24T13:32:52Z</time>
</trkpt>
<trkpt lat="34.993626" lon="135.856151">
 <ele>189.9</ele>
 <time>2020-03-24T13:32:53Z</time>
</trkpt>
<trkpt lat="34.993557" lon="135.856033">
 <ele>193.1</ele>
 <time>2020-03-24T13:32:53Z</time>
</trkpt>
<trkpt lat="34.993488" lon="135.855958">
 <ele>195.5</ele>
 <time>2020-03-24T13:32:53Z</time>
</trkpt>
<trkpt lat="34.993428" lon="135.855948">
 <ele>195.1</ele>
 <time>2020-03-24T13:32:53Z</time>
</trkpt>
<trkpt lat="34.993377" lon="135.855948">
 <ele>195</ele>
 <time>2020-03-24T13:32:53Z</time>
</trkpt>
<trkpt lat="34.993334" lon="135.855969">
 <ele>195.5</ele>
 <time>2020-03-24T13:32:53Z</time>
</trkpt>
<trkpt lat="34.993265" lon="135.856023">
 <ele>195.4</ele>
 <time>2020-03-24T13:32:53Z</time>
</trkpt>
<trkpt lat="34.993162" lon="135.856087">
 <ele>196</ele>
 <time>2020-03-24T13:32:53Z</time>
</trkpt>
<trkpt lat="34.993094" lon="135.856194">
 <ele>198.8</ele>
 <time>2020-03-24T13:32:53Z</time>
</trkpt>
<trkpt lat="34.993042" lon="135.856280">
 <ele>201.9</ele>
 <time>2020-03-24T13:32:53Z</time>
</trkpt>
<trkpt lat="34.992982" lon="135.856366">
 <ele>207</ele>
 <time>2020-03-24T13:32:54Z</time>
</trkpt>
<trkpt lat="34.992913" lon="135.856473">
 <ele>214.3</ele>
 <time>2020-03-24T13:32:54Z</time>
</trkpt>
<trkpt lat="34.992776" lon="135.856666">
 <ele>226.5</ele>
 <time>2020-03-24T13:32:54Z</time>
</trkpt>
<trkpt lat="34.992664" lon="135.856795">
 <ele>233.7</ele>
 <time>2020-03-24T13:32:54Z</time>
</trkpt>
<trkpt lat="34.992570" lon="135.856892">
 <ele>239</ele>
 <time>2020-03-24T13:32:54Z</time>
</trkpt>
<trkpt lat="34.992407" lon="135.856913">
 <ele>246</ele>
 <time>2020-03-24T13:32:54Z</time>
</trkpt>
<trkpt lat="34.992304" lon="135.856924">
 <ele>249.7</ele>
 <time>2020-03-24T13:32:54Z</time>
</trkpt>
<trkpt lat="34.992158" lon="135.856924">
 <ele>252.5</ele>
 <time>2020-03-24T13:32:54Z</time>
</trkpt>
<trkpt lat="34.992089" lon="135.856924">
 <ele>253.9</ele>
 <time>2020-03-24T13:32:55Z</time>
</trkpt>
<trkpt lat="34.991926" lon="135.856827">
 <ele>257.6</ele>
 <time>2020-03-24T13:32:55Z</time>
</trkpt>
<trkpt lat="34.991789" lon="135.856731">
 <ele>259.5</ele>
 <time>2020-03-24T13:32:55Z</time>
</trkpt>
<trkpt lat="34.991643" lon="135.856645">
 <ele>267.2</ele>
 <time>2020-03-24T13:32:55Z</time>
</trkpt>
<trkpt lat="34.991506" lon="135.856527">
 <ele>273.9</ele>
 <time>2020-03-24T13:32:55Z</time>
</trkpt>
<trkpt lat="34.991403" lon="135.856463">
 <ele>276.9</ele>
 <time>2020-03-24T13:32:55Z</time>
</trkpt>
<trkpt lat="34.991308" lon="135.856441">
 <ele>281.2</ele>
 <time>2020-03-24T13:32:55Z</time>
</trkpt>
<trkpt lat="34.991240" lon="135.856409">
 <ele>283.1</ele>
 <time>2020-03-24T13:32:55Z</time>
</trkpt>
<trkpt lat="34.991145" lon="135.856409">
 <ele>286.2</ele>
 <time>2020-03-24T13:32:56Z</time>
</trkpt>
<trkpt lat="34.991059" lon="135.856409">
 <ele>288</ele>
 <time>2020-03-24T13:32:56Z</time>
</trkpt>
<trkpt lat="34.990956" lon="135.856377">
 <ele>290.4</ele>
 <time>2020-03-24T13:32:56Z</time>
</trkpt>
<trkpt lat="34.990879" lon="135.856323">
 <ele>292.3</ele>
 <time>2020-03-24T13:32:56Z</time>
</trkpt>
<trkpt lat="34.990768" lon="135.856216">
 <ele>295.1</ele>
 <time>2020-03-24T13:32:56Z</time>
</trkpt>
<trkpt lat="34.990682" lon="135.856173">
 <ele>296.4</ele>
 <time>2020-03-24T13:32:56Z</time>
</trkpt>
<trkpt lat="34.990579" lon="135.856098">
 <ele>298.9</ele>
 <time>2020-03-24T13:32:56Z</time>
</trkpt>
<trkpt lat="34.990467" lon="135.856012">
 <ele>302.5</ele>
 <time>2020-03-24T13:32:56Z</time>
</trkpt>
<trkpt lat="34.990390" lon="135.855980">
 <ele>305</ele>
 <time>2020-03-24T13:32:57Z</time>
</trkpt>
<trkpt lat="34.990270" lon="135.855926">
 <ele>309.6</ele>
 <time>2020-03-24T13:32:57Z</time>
</trkpt>
<trkpt lat="34.990141" lon="135.855883">
 <ele>313.6</ele>
 <time>2020-03-24T13:32:57Z</time>
</trkpt>
<trkpt lat="34.990029" lon="135.855787">
 <ele>319.8</ele>
 <time>2020-03-24T13:32:57Z</time>
</trkpt>
<trkpt lat="34.989961" lon="135.855744">
 <ele>321.8</ele>
 <time>2020-03-24T13:32:57Z</time>
</trkpt>
<trkpt lat="34.989858" lon="135.855733">
 <ele>326</ele>
 <time>2020-03-24T13:32:57Z</time>
</trkpt>
<trkpt lat="34.989789" lon="135.855690">
 <ele>329.3</ele>
 <time>2020-03-24T13:32:57Z</time>
</trkpt>
<trkpt lat="34.989720" lon="135.855690">
 <ele>331.7</ele>
 <time>2020-03-24T13:32:58Z</time>
</trkpt>
<trkpt lat="34.989609" lon="135.855647">
 <ele>336.2</ele>
 <time>2020-03-24T13:32:58Z</time>
</trkpt>
<trkpt lat="34.989532" lon="135.855604">
 <ele>338.2</ele>
 <time>2020-03-24T13:32:58Z</time>
</trkpt>
<trkpt lat="34.989472" lon="135.855583">
 <ele>339</ele>
 <time>2020-03-24T13:32:58Z</time>
</trkpt>
<trkpt lat="34.989394" lon="135.855540">
 <ele>342.2</ele>
 <time>2020-03-24T13:32:58Z</time>
</trkpt>
<trkpt lat="34.989231" lon="135.855529">
 <ele>347.1</ele>
 <time>2020-03-24T13:32:58Z</time>
</trkpt>
<trkpt lat="34.989137" lon="135.855551">
 <ele>351.2</ele>
 <time>2020-03-24T13:32:58Z</time>
</trkpt>
<trkpt lat="34.989042" lon="135.855551">
 <ele>355.4</ele>
 <time>2020-03-24T13:32:58Z</time>
</trkpt>
<trkpt lat="34.988939" lon="135.855529">
 <ele>359.6</ele>
 <time>2020-03-24T13:32:59Z</time>
</trkpt>
<trkpt lat="34.988871" lon="135.855486">
 <ele>360.6</ele>
 <time>2020-03-24T13:32:59Z</time>
</trkpt>
<trkpt lat="34.988802" lon="135.855433">
 <ele>361.7</ele>
 <time>2020-03-24T13:32:59Z</time>
</trkpt>
<trkpt lat="34.988716" lon="135.855390">
 <ele>362.1</ele>
 <time>2020-03-24T13:32:59Z</time>
</trkpt>
<trkpt lat="34.988665" lon="135.855218">
 <ele>361.2</ele>
 <time>2020-03-24T13:32:59Z</time>
</trkpt>
<trkpt lat="34.988562" lon="135.855057">
 <ele>357.8</ele>
 <time>2020-03-24T13:32:59Z</time>
</trkpt>
<trkpt lat="34.988433" lon="135.854928">
 <ele>354.9</ele>
 <time>2020-03-24T13:32:59Z</time>
</trkpt>
<trkpt lat="34.988313" lon="135.854864">
 <ele>356.2</ele>
 <time>2020-03-24T13:32:59Z</time>
</trkpt>
<trkpt lat="34.988073" lon="135.854832">
 <ele>363.2</ele>
 <time>2020-03-24T13:33:00Z</time>
</trkpt>
<trkpt lat="34.987970" lon="135.854810">
 <ele>366.5</ele>
 <time>2020-03-24T13:33:00Z</time>
</trkpt>
<trkpt lat="34.987849" lon="135.854789">
 <ele>371.2</ele>
 <time>2020-03-24T13:33:00Z</time>
</trkpt>
<trkpt lat="34.987721" lon="135.854821">
 <ele>374.1</ele>
 <time>2020-03-24T13:33:00Z</time>
</trkpt>
<trkpt lat="34.987618" lon="135.854810">
 <ele>377.1</ele>
 <time>2020-03-24T13:33:00Z</time>
</trkpt>
<trkpt lat="34.987489" lon="135.854692">
 <ele>383.5</ele>
 <time>2020-03-24T13:33:00Z</time>
</trkpt>
<trkpt lat="34.987369" lon="135.854649">
 <ele>388</ele>
 <time>2020-03-24T13:33:00Z</time>
</trkpt>
<trkpt lat="34.987257" lon="135.854649">
 <ele>392.2</ele>
 <time>2020-03-24T13:33:00Z</time>
</trkpt>
<trkpt lat="34.987128" lon="135.854714">
 <ele>398.3</ele>
 <time>2020-03-24T13:33:01Z</time>
</trkpt>
<trkpt lat="34.987008" lon="135.854800">
 <ele>404.3</ele>
 <time>2020-03-24T13:33:01Z</time>
</trkpt>
<trkpt lat="34.986940" lon="135.854821">
 <ele>407.1</ele>
 <time>2020-03-24T13:33:01Z</time>
</trkpt>
<trkpt lat="34.986682" lon="135.855282">
 <ele>440.8</ele>
 <time>2020-03-24T13:33:01Z</time>
</trkpt>
<trkpt lat="34.986545" lon="135.855518">
 <ele>454.2</ele>
 <time>2020-03-24T13:33:01Z</time>
</trkpt>
<trkpt lat="34.986485" lon="135.855636">
 <ele>456.5</ele>
 <time>2020-03-24T13:33:01Z</time>
</trkpt>
<trkpt lat="34.986467" lon="135.855712">
 <ele>457.7</ele>
 <time>2020-03-24T13:33:01Z</time>
</trkpt>
<trkpt lat="34.986364" lon="135.855722">
 <ele>460.7</ele>
 <time>2020-03-24T13:33:02Z</time>
</trkpt>
<trkpt lat="34.986287" lon="135.855669">
 <ele>462.5</ele>
 <time>2020-03-24T13:33:02Z</time>
</trkpt>
<trkpt lat="34.986176" lon="135.855615">
 <ele>465.1</ele>
 <time>2020-03-24T13:33:02Z</time>
</trkpt>
<trkpt lat="34.986047" lon="135.855561">
 <ele>468.4</ele>
 <time>2020-03-24T13:33:02Z</time>
</trkpt>
<trkpt lat="34.985927" lon="135.855476">
 <ele>471.7</ele>
 <time>2020-03-24T13:33:02Z</time>
</trkpt>
<trkpt lat="34.985807" lon="135.855443">
 <ele>475.4</ele>
 <time>2020-03-24T13:33:02Z</time>
</trkpt>
<trkpt lat="34.985626" lon="135.855400">
 <ele>479.9</ele>
 <time>2020-03-24T13:33:02Z</time>
</trkpt>
<trkpt lat="34.985480" lon="135.855336">
 <ele>482.2</ele>
 <time>2020-03-24T13:33:02Z</time>
</trkpt>
<trkpt lat="34.985352" lon="135.855304">
 <ele>483.3</ele>
 <time>2020-03-24T13:33:03Z</time>
</trkpt>
<trkpt lat="34.985223" lon="135.855261">
 <ele>484.3</ele>
 <time>2020-03-24T13:33:03Z</time>
</trkpt>
<trkpt lat="34.985094" lon="135.855218">
 <ele>485.8</ele>
 <time>2020-03-24T13:33:03Z</time>
</trkpt>
<trkpt lat="34.984991" lon="135.855197">
 <ele>486.9</ele>
 <time>2020-03-24T13:33:03Z</time>
</trkpt>
<trkpt lat="34.984914" lon="135.855197">
 <ele>486.9</ele>
 <time>2020-03-24T13:33:03Z</time>
</trkpt>
<trkpt lat="34.984820" lon="135.855282">
 <ele>485.4</ele>
 <time>2020-03-24T13:33:03Z</time>
</trkpt>
<trkpt lat="34.984648" lon="135.855433">
 <ele>483.1</ele>
 <time>2020-03-24T13:33:03Z</time>
</trkpt>
<trkpt lat="34.984502" lon="135.855594">
 <ele>486.9</ele>
 <time>2020-03-24T13:33:04Z</time>
</trkpt>
<trkpt lat="34.984330" lon="135.855754">
 <ele>492.1</ele>
 <time>2020-03-24T13:33:04Z</time>
</trkpt>
<trkpt lat="34.984202" lon="135.855840">
 <ele>494.4</ele>
 <time>2020-03-24T13:33:04Z</time>
</trkpt>
<trkpt lat="34.984013" lon="135.855937">
 <ele>500.6</ele>
 <time>2020-03-24T13:33:04Z</time>
</trkpt>
<trkpt lat="34.983858" lon="135.856055">
 <ele>500.2</ele>
 <time>2020-03-24T13:33:04Z</time>
</trkpt>
<trkpt lat="34.983729" lon="135.856151">
 <ele>499.9</ele>
 <time>2020-03-24T13:33:04Z</time>
</trkpt>
<trkpt lat="34.983626" lon="135.856151">
 <ele>502.7</ele>
 <time>2020-03-24T13:33:04Z</time>
</trkpt>
<trkpt lat="34.983506" lon="135.856130">
 <ele>506.3</ele>
 <time>2020-03-24T13:33:04Z</time>
</trkpt>
<trkpt lat="34.983412" lon="135.856130">
 <ele>509.6</ele>
 <time>2020-03-24T13:33:05Z</time>
</trkpt>
<trkpt lat="34.983343" lon="135.856194">
 <ele>509.3</ele>
 <time>2020-03-24T13:33:05Z</time>
</trkpt>
<trkpt lat="34.983300" lon="135.856302">
 <ele>508.8</ele>
 <time>2020-03-24T13:33:05Z</time>
</trkpt>
<trkpt lat="34.983275" lon="135.856387">
 <ele>511.2</ele>
 <time>2020-03-24T13:33:05Z</time>
</trkpt>
<trkpt lat="34.983172" lon="135.856484">
 <ele>515.6</ele>
 <time>2020-03-24T13:33:05Z</time>
</trkpt>
<trkpt lat="34.983094" lon="135.856527">
 <ele>517.1</ele>
 <time>2020-03-24T13:33:05Z</time>
</trkpt>
<trkpt lat="34.982983" lon="135.856570">
 <ele>519.9</ele>
 <time>2020-03-24T13:33:05Z</time>
</trkpt>
<trkpt lat="34.982854" lon="135.856666">
 <ele>521.1</ele>
 <time>2020-03-24T13:33:06Z</time>
</trkpt>
<trkpt lat="34.982742" lon="135.856763">
 <ele>523</ele>
 <time>2020-03-24T13:33:06Z</time>
</trkpt>
<trkpt lat="34.982597" lon="135.856752">
 <ele>524</ele>
 <time>2020-03-24T13:33:06Z</time>
</trkpt>
<trkpt lat="34.982502" lon="135.856752">
 <ele>523.8</ele>
 <time>2020-03-24T13:33:06Z</time>
</trkpt>
<trkpt lat="34.982391" lon="135.856699">
 <ele>524</ele>
 <time>2020-03-24T13:33:06Z</time>
</trkpt>
<trkpt lat="34.982313" lon="135.856645">
 <ele>525.1</ele>
 <time>2020-03-24T13:33:06Z</time>
</trkpt>
<trkpt lat="34.982245" lon="135.856645">
 <ele>524.4</ele>
 <time>2020-03-24T13:33:06Z</time>
</trkpt>
<trkpt lat="34.982090" lon="135.856516">
 <ele>524.2</ele>
 <time>2020-03-24T13:33:06Z</time>
</trkpt>
<trkpt lat="34.981936" lon="135.856441">
 <ele>524.9</ele>
 <time>2020-03-24T13:33:07Z</time>
</trkpt>
<trkpt lat="34.981833" lon="135.856377">
 <ele>526.7</ele>
 <time>2020-03-24T13:33:07Z</time>
</trkpt>
<trkpt lat="34.981721" lon="135.856355">
 <ele>528.6</ele>
 <time>2020-03-24T13:33:07Z</time>
</trkpt>
<trkpt lat="34.981575" lon="135.856334">
 <ele>528.6</ele>
 <time>2020-03-24T13:33:07Z</time>
</trkpt>
<trkpt lat="34.981464" lon="135.856302">
 <ele>527.6</ele>
 <time>2020-03-24T13:33:07Z</time>
</trkpt>
<trkpt lat="34.981326" lon="135.856227">
 <ele>524.5</ele>
 <time>2020-03-24T13:33:07Z</time>
</trkpt>
<trkpt lat="34.981215" lon="135.856184">
 <ele>523.2</ele>
 <time>2020-03-24T13:33:07Z</time>
</trkpt>
<trkpt lat="34.981137" lon="135.856205">
 <ele>525.5</ele>
 <time>2020-03-24T13:33:07Z</time>
</trkpt>
<trkpt lat="34.980949" lon="135.856345">
 <ele>539.9</ele>
 <time>2020-03-24T13:33:08Z</time>
</trkpt>
<trkpt lat="34.980828" lon="135.856430">
 <ele>544.1</ele>
 <time>2020-03-24T13:33:08Z</time>
</trkpt>
<trkpt lat="34.980700" lon="135.856581">
 <ele>549.6</ele>
 <time>2020-03-24T13:33:08Z</time>
</trkpt>
<trkpt lat="34.980579" lon="135.856666">
 <ele>551.9</ele>
 <time>2020-03-24T13:33:08Z</time>
</trkpt>
<trkpt lat="34.980459" lon="135.856677">
 <ele>554.7</ele>
 <time>2020-03-24T13:33:08Z</time>
</trkpt>
<trkpt lat="34.980331" lon="135.856720">
 <ele>556.5</ele>
 <time>2020-03-24T13:33:08Z</time>
</trkpt>
<trkpt lat="34.980193" lon="135.856752">
 <ele>558.2</ele>
 <time>2020-03-24T13:33:08Z</time>
</trkpt>
<trkpt lat="34.980065" lon="135.856774">
 <ele>561.2</ele>
 <time>2020-03-24T13:33:08Z</time>
</trkpt>
<trkpt lat="34.979876" lon="135.856752">
 <ele>563.3</ele>
 <time>2020-03-24T13:33:09Z</time>
</trkpt>
<trkpt lat="34.979738" lon="135.856656">
 <ele>565</ele>
 <time>2020-03-24T13:33:09Z</time>
</trkpt>
<trkpt lat="34.979644" lon="135.856591">
 <ele>568.2</ele>
 <time>2020-03-24T13:33:09Z</time>
</trkpt>
<trkpt lat="34.979532" lon="135.856495">
 <ele>566.8</ele>
 <time>2020-03-24T13:33:09Z</time>
</trkpt>
<trkpt lat="34.979447" lon="135.856430">
 <ele>567.6</ele>
 <time>2020-03-24T13:33:09Z</time>
</trkpt>
<trkpt lat="34.979361" lon="135.856441">
 <ele>568.9</ele>
 <time>2020-03-24T13:33:09Z</time>
</trkpt>
<trkpt lat="34.979275" lon="135.856398">
 <ele>567.7</ele>
 <time>2020-03-24T13:33:09Z</time>
</trkpt>
<trkpt lat="34.979198" lon="135.856398">
 <ele>567.3</ele>
 <time>2020-03-24T13:33:09Z</time>
</trkpt>
<trkpt lat="34.979112" lon="135.856366">
 <ele>567.4</ele>
 <time>2020-03-24T13:33:10Z</time>
</trkpt>
<trkpt lat="34.979026" lon="135.856302">
 <ele>567.7</ele>
 <time>2020-03-24T13:33:10Z</time>
</trkpt>
<trkpt lat="34.978734" lon="135.856087">
 <ele>568.8</ele>
 <time>2020-03-24T13:33:10Z</time>
</trkpt>
<trkpt lat="34.978614" lon="135.856012">
 <ele>567.2</ele>
 <time>2020-03-24T13:33:10Z</time>
</trkpt>
<trkpt lat="34.978511" lon="135.855883">
 <ele>565</ele>
 <time>2020-03-24T13:33:10Z</time>
</trkpt>
<trkpt lat="34.978339" lon="135.855712">
 <ele>566.8</ele>
 <time>2020-03-24T13:33:10Z</time>
</trkpt>
<trkpt lat="34.978193" lon="135.855594">
 <ele>570.5</ele>
 <time>2020-03-24T13:33:10Z</time>
</trkpt>
<trkpt lat="34.978065" lon="135.855465">
 <ele>574.4</ele>
 <time>2020-03-24T13:33:11Z</time>
</trkpt>
<trkpt lat="34.977953" lon="135.855347">
 <ele>575.4</ele>
 <time>2020-03-24T13:33:11Z</time>
</trkpt>
<trkpt lat="34.977841" lon="135.855207">
 <ele>570.6</ele>
 <time>2020-03-24T13:33:11Z</time>
</trkpt>
<trkpt lat="34.977756" lon="135.855143">
 <ele>573.7</ele>
 <time>2020-03-24T13:33:11Z</time>
</trkpt>
<trkpt lat="34.977627" lon="135.855003">
 <ele>573.8</ele>
 <time>2020-03-24T13:33:11Z</time>
</trkpt>
<trkpt lat="34.977507" lon="135.854800">
 <ele>570.7</ele>
 <time>2020-03-24T13:33:11Z</time>
</trkpt>
<trkpt lat="34.977472" lon="135.854682">
 <ele>570.5</ele>
 <time>2020-03-24T13:33:11Z</time>
</trkpt>
<trkpt lat="34.977387" lon="135.854531">
 <ele>572.8</ele>
 <time>2020-03-24T13:33:11Z</time>
</trkpt>
<trkpt lat="34.977292" lon="135.854413">
 <ele>575</ele>
 <time>2020-03-24T13:33:12Z</time>
</trkpt>
<trkpt lat="34.977224" lon="135.854231">
 <ele>580.7</ele>
 <time>2020-03-24T13:33:12Z</time>
</trkpt>
<trkpt lat="34.977172" lon="135.854038">
 <ele>584.2</ele>
 <time>2020-03-24T13:33:12Z</time>
</trkpt>
<trkpt lat="34.977112" lon="135.853898">
 <ele>586</ele>
 <time>2020-03-24T13:33:12Z</time>
</trkpt>
<trkpt lat="34.977095" lon="135.853716">
 <ele>586.8</ele>
 <time>2020-03-24T13:33:12Z</time>
</trkpt>
<trkpt lat="34.977035" lon="135.853566">
 <ele>587.5</ele>
 <time>2020-03-24T13:33:12Z</time>
</trkpt>
<trkpt lat="34.977026" lon="135.853416">
 <ele>588.7</ele>
 <time>2020-03-24T13:33:12Z</time>
</trkpt>
<trkpt lat="34.976957" lon="135.853265">
 <ele>590.4</ele>
 <time>2020-03-24T13:33:12Z</time>
</trkpt>
<trkpt lat="34.976850" lon="135.853003">
 <ele>592.9</ele>
 <time>2020-03-24T13:33:13Z</time>
</trkpt>
<trkpt lat="34.976957" lon="135.853265">
 <ele>590.4</ele>
 <time>2020-03-24T13:33:13Z</time>
</trkpt>
<trkpt lat="34.977026" lon="135.853416">
 <ele>588.7</ele>
 <time>2020-03-24T13:33:13Z</time>
</trkpt>
<trkpt lat="34.977035" lon="135.853566">
 <ele>587.5</ele>
 <time>2020-03-24T13:33:13Z</time>
</trkpt>
<trkpt lat="34.977095" lon="135.853716">
 <ele>586.8</ele>
 <time>2020-03-24T13:33:13Z</time>
</trkpt>
<trkpt lat="34.977112" lon="135.853898">
 <ele>586</ele>
 <time>2020-03-24T13:33:13Z</time>
</trkpt>
<trkpt lat="34.977172" lon="135.854038">
 <ele>584.2</ele>
 <time>2020-03-24T13:33:13Z</time>
</trkpt>
<trkpt lat="34.977224" lon="135.854231">
 <ele>580.7</ele>
 <time>2020-03-24T13:33:13Z</time>
</trkpt>
<trkpt lat="34.977292" lon="135.854413">
 <ele>575</ele>
 <time>2020-03-24T13:33:14Z</time>
</trkpt>
<trkpt lat="34.977387" lon="135.854531">
 <ele>572.8</ele>
 <time>2020-03-24T13:33:14Z</time>
</trkpt>
<trkpt lat="34.977472" lon="135.854682">
 <ele>570.5</ele>
 <time>2020-03-24T13:33:14Z</time>
</trkpt>
<trkpt lat="34.977507" lon="135.854800">
 <ele>570.7</ele>
 <time>2020-03-24T13:33:14Z</time>
</trkpt>
<trkpt lat="34.977627" lon="135.855003">
 <ele>573.8</ele>
 <time>2020-03-24T13:33:14Z</time>
</trkpt>
<trkpt lat="34.977756" lon="135.855143">
 <ele>573.7</ele>
 <time>2020-03-24T13:33:14Z</time>
</trkpt>
<trkpt lat="34.977841" lon="135.855207">
 <ele>570.6</ele>
 <time>2020-03-24T13:33:14Z</time>
</trkpt>
<trkpt lat="34.977953" lon="135.855347">
 <ele>575.4</ele>
 <time>2020-03-24T13:33:15Z</time>
</trkpt>
<trkpt lat="34.978065" lon="135.855465">
 <ele>574.4</ele>
 <time>2020-03-24T13:33:15Z</time>
</trkpt>
<trkpt lat="34.978193" lon="135.855594">
 <ele>570.5</ele>
 <time>2020-03-24T13:33:15Z</time>
</trkpt>
<trkpt lat="34.978339" lon="135.855712">
 <ele>566.8</ele>
 <time>2020-03-24T13:33:15Z</time>
</trkpt>
<trkpt lat="34.978511" lon="135.855883">
 <ele>565</ele>
 <time>2020-03-24T13:33:15Z</time>
</trkpt>
<trkpt lat="34.978614" lon="135.856012">
 <ele>567.2</ele>
 <time>2020-03-24T13:33:15Z</time>
</trkpt>
<trkpt lat="34.978734" lon="135.856087">
 <ele>568.8</ele>
 <time>2020-03-24T13:33:15Z</time>
</trkpt>
<trkpt lat="34.979026" lon="135.856302">
 <ele>567.7</ele>
 <time>2020-03-24T13:33:15Z</time>
</trkpt>
<trkpt lat="34.979112" lon="135.856366">
 <ele>567.4</ele>
 <time>2020-03-24T13:33:16Z</time>
</trkpt>
<trkpt lat="34.979198" lon="135.856398">
 <ele>567.3</ele>
 <time>2020-03-24T13:33:16Z</time>
</trkpt>
<trkpt lat="34.979275" lon="135.856398">
 <ele>567.7</ele>
 <time>2020-03-24T13:33:16Z</time>
</trkpt>
<trkpt lat="34.979361" lon="135.856441">
 <ele>568.9</ele>
 <time>2020-03-24T13:33:16Z</time>
</trkpt>
<trkpt lat="34.979447" lon="135.856430">
 <ele>567.6</ele>
 <time>2020-03-24T13:33:16Z</time>
</trkpt>
<trkpt lat="34.979532" lon="135.856495">
 <ele>566.8</ele>
 <time>2020-03-24T13:33:16Z</time>
</trkpt>
<trkpt lat="34.979644" lon="135.856591">
 <ele>568.2</ele>
 <time>2020-03-24T13:33:16Z</time>
</trkpt>
<trkpt lat="34.979738" lon="135.856656">
 <ele>565</ele>
 <time>2020-03-24T13:33:17Z</time>
</trkpt>
<trkpt lat="34.979876" lon="135.856752">
 <ele>563.3</ele>
 <time>2020-03-24T13:33:17Z</time>
</trkpt>
<trkpt lat="34.980065" lon="135.856774">
 <ele>561.2</ele>
 <time>2020-03-24T13:33:17Z</time>
</trkpt>
<trkpt lat="34.980193" lon="135.856752">
 <ele>558.2</ele>
 <time>2020-03-24T13:33:17Z</time>
</trkpt>
<trkpt lat="34.980331" lon="135.856720">
 <ele>556.5</ele>
 <time>2020-03-24T13:33:17Z</time>
</trkpt>
<trkpt lat="34.980459" lon="135.856677">
 <ele>554.7</ele>
 <time>2020-03-24T13:33:17Z</time>
</trkpt>
<trkpt lat="34.980579" lon="135.856666">
 <ele>551.9</ele>
 <time>2020-03-24T13:33:17Z</time>
</trkpt>
<trkpt lat="34.980700" lon="135.856581">
 <ele>549.6</ele>
 <time>2020-03-24T13:33:17Z</time>
</trkpt>
<trkpt lat="34.980828" lon="135.856430">
 <ele>544.1</ele>
 <time>2020-03-24T13:33:18Z</time>
</trkpt>
<trkpt lat="34.980949" lon="135.856345">
 <ele>539.9</ele>
 <time>2020-03-24T13:33:18Z</time>
</trkpt>
<trkpt lat="34.981137" lon="135.856205">
 <ele>525.5</ele>
 <time>2020-03-24T13:33:18Z</time>
</trkpt>
<trkpt lat="34.981215" lon="135.856184">
 <ele>523.2</ele>
 <time>2020-03-24T13:33:18Z</time>
</trkpt>
<trkpt lat="34.981326" lon="135.856227">
 <ele>524.5</ele>
 <time>2020-03-24T13:33:18Z</time>
</trkpt>
<trkpt lat="34.981464" lon="135.856302">
 <ele>527.6</ele>
 <time>2020-03-24T13:33:18Z</time>
</trkpt>
<trkpt lat="34.981575" lon="135.856334">
 <ele>528.6</ele>
 <time>2020-03-24T13:33:18Z</time>
</trkpt>
<trkpt lat="34.981721" lon="135.856355">
 <ele>528.6</ele>
 <time>2020-03-24T13:33:18Z</time>
</trkpt>
<trkpt lat="34.981833" lon="135.856377">
 <ele>526.7</ele>
 <time>2020-03-24T13:33:19Z</time>
</trkpt>
<trkpt lat="34.981936" lon="135.856441">
 <ele>524.9</ele>
 <time>2020-03-24T13:33:19Z</time>
</trkpt>
<trkpt lat="34.982090" lon="135.856516">
 <ele>524.2</ele>
 <time>2020-03-24T13:33:19Z</time>
</trkpt>
<trkpt lat="34.982245" lon="135.856645">
 <ele>524.4</ele>
 <time>2020-03-24T13:33:19Z</time>
</trkpt>
<trkpt lat="34.982313" lon="135.856645">
 <ele>525.1</ele>
 <time>2020-03-24T13:33:19Z</time>
</trkpt>
<trkpt lat="34.982391" lon="135.856699">
 <ele>524</ele>
 <time>2020-03-24T13:33:19Z</time>
</trkpt>
<trkpt lat="34.982502" lon="135.856752">
 <ele>523.8</ele>
 <time>2020-03-24T13:33:19Z</time>
</trkpt>
<trkpt lat="34.982597" lon="135.856752">
 <ele>524</ele>
 <time>2020-03-24T13:33:19Z</time>
</trkpt>
<trkpt lat="34.982742" lon="135.856763">
 <ele>523</ele>
 <time>2020-03-24T13:33:20Z</time>
</trkpt>
<trkpt lat="34.982854" lon="135.856666">
 <ele>521.1</ele>
 <time>2020-03-24T13:33:20Z</time>
</trkpt>
<trkpt lat="34.982983" lon="135.856570">
 <ele>519.9</ele>
 <time>2020-03-24T13:33:20Z</time>
</trkpt>
<trkpt lat="34.983094" lon="135.856527">
 <ele>517.1</ele>
 <time>2020-03-24T13:33:20Z</time>
</trkpt>
<trkpt lat="34.983172" lon="135.856484">
 <ele>515.6</ele>
 <time>2020-03-24T13:33:20Z</time>
</trkpt>
<trkpt lat="34.983275" lon="135.856387">
 <ele>511.2</ele>
 <time>2020-03-24T13:33:20Z</time>
</trkpt>
<trkpt lat="34.983300" lon="135.856302">
 <ele>508.8</ele>
 <time>2020-03-24T13:33:20Z</time>
</trkpt>
<trkpt lat="34.983343" lon="135.856194">
 <ele>509.3</ele>
 <time>2020-03-24T13:33:21Z</time>
</trkpt>
<trkpt lat="34.983412" lon="135.856130">
 <ele>509.6</ele>
 <time>2020-03-24T13:33:21Z</time>
</trkpt>
<trkpt lat="34.983506" lon="135.856130">
 <ele>506.3</ele>
 <time>2020-03-24T13:33:21Z</time>
</trkpt>
<trkpt lat="34.983626" lon="135.856151">
 <ele>502.7</ele>
 <time>2020-03-24T13:33:21Z</time>
</trkpt>
<trkpt lat="34.983729" lon="135.856151">
 <ele>499.9</ele>
 <time>2020-03-24T13:33:21Z</time>
</trkpt>
<trkpt lat="34.983858" lon="135.856055">
 <ele>500.2</ele>
 <time>2020-03-24T13:33:21Z</time>
</trkpt>
<trkpt lat="34.984013" lon="135.855937">
 <ele>500.6</ele>
 <time>2020-03-24T13:33:21Z</time>
</trkpt>
<trkpt lat="34.984202" lon="135.855840">
 <ele>494.4</ele>
 <time>2020-03-24T13:33:21Z</time>
</trkpt>
<trkpt lat="34.984330" lon="135.855754">
 <ele>492.1</ele>
 <time>2020-03-24T13:33:22Z</time>
</trkpt>
<trkpt lat="34.984502" lon="135.855594">
 <ele>486.9</ele>
 <time>2020-03-24T13:33:22Z</time>
</trkpt>
<trkpt lat="34.984648" lon="135.855433">
 <ele>483.1</ele>
 <time>2020-03-24T13:33:22Z</time>
</trkpt>
<trkpt lat="34.984820" lon="135.855282">
 <ele>485.4</ele>
 <time>2020-03-24T13:33:22Z</time>
</trkpt>
<trkpt lat="34.984914" lon="135.855197">
 <ele>486.9</ele>
 <time>2020-03-24T13:33:22Z</time>
</trkpt>
<trkpt lat="34.984991" lon="135.855197">
 <ele>486.9</ele>
 <time>2020-03-24T13:33:22Z</time>
</trkpt>
<trkpt lat="34.985094" lon="135.855218">
 <ele>485.8</ele>
 <time>2020-03-24T13:33:22Z</time>
</trkpt>
<trkpt lat="34.985223" lon="135.855261">
 <ele>484.3</ele>
 <time>2020-03-24T13:33:22Z</time>
</trkpt>
<trkpt lat="34.985352" lon="135.855304">
 <ele>483.3</ele>
 <time>2020-03-24T13:33:23Z</time>
</trkpt>
<trkpt lat="34.985480" lon="135.855336">
 <ele>482.2</ele>
 <time>2020-03-24T13:33:23Z</time>
</trkpt>
<trkpt lat="34.985626" lon="135.855400">
 <ele>479.9</ele>
 <time>2020-03-24T13:33:23Z</time>
</trkpt>
<trkpt lat="34.985807" lon="135.855443">
 <ele>475.4</ele>
 <time>2020-03-24T13:33:23Z</time>
</trkpt>
<trkpt lat="34.985927" lon="135.855476">
 <ele>471.7</ele>
 <time>2020-03-24T13:33:23Z</time>
</trkpt>
<trkpt lat="34.986047" lon="135.855561">
 <ele>468.4</ele>
 <time>2020-03-24T13:33:23Z</time>
</trkpt>
<trkpt lat="34.986176" lon="135.855615">
 <ele>465.1</ele>
 <time>2020-03-24T13:33:23Z</time>
</trkpt>
<trkpt lat="34.986287" lon="135.855669">
 <ele>462.5</ele>
 <time>2020-03-24T13:33:24Z</time>
</trkpt>
<trkpt lat="34.986364" lon="135.855722">
 <ele>460.7</ele>
 <time>2020-03-24T13:33:24Z</time>
</trkpt>
<trkpt lat="34.986467" lon="135.855712">
 <ele>457.7</ele>
 <time>2020-03-24T13:33:24Z</time>
</trkpt>
<trkpt lat="34.986485" lon="135.855636">
 <ele>456.5</ele>
 <time>2020-03-24T13:33:24Z</time>
</trkpt>
<trkpt lat="34.986545" lon="135.855518">
 <ele>454.2</ele>
 <time>2020-03-24T13:33:24Z</time>
</trkpt>
<trkpt lat="34.986682" lon="135.855282">
 <ele>440.8</ele>
 <time>2020-03-24T13:33:24Z</time>
</trkpt>
<trkpt lat="34.986940" lon="135.854821">
 <ele>407.1</ele>
 <time>2020-03-24T13:33:24Z</time>
</trkpt>
<trkpt lat="34.987008" lon="135.854800">
 <ele>404.3</ele>
 <time>2020-03-24T13:33:24Z</time>
</trkpt>
<trkpt lat="34.987128" lon="135.854714">
 <ele>398.3</ele>
 <time>2020-03-24T13:33:25Z</time>
</trkpt>
<trkpt lat="34.987257" lon="135.854649">
 <ele>392.2</ele>
 <time>2020-03-24T13:33:25Z</time>
</trkpt>
<trkpt lat="34.987369" lon="135.854649">
 <ele>388</ele>
 <time>2020-03-24T13:33:25Z</time>
</trkpt>
<trkpt lat="34.987489" lon="135.854692">
 <ele>383.5</ele>
 <time>2020-03-24T13:33:25Z</time>
</trkpt>
<trkpt lat="34.987618" lon="135.854810">
 <ele>377.1</ele>
 <time>2020-03-24T13:33:25Z</time>
</trkpt>
<trkpt lat="34.987721" lon="135.854821">
 <ele>374.1</ele>
 <time>2020-03-24T13:33:25Z</time>
</trkpt>
<trkpt lat="34.987849" lon="135.854789">
 <ele>371.2</ele>
 <time>2020-03-24T13:33:25Z</time>
</trkpt>
<trkpt lat="34.987970" lon="135.854810">
 <ele>366.5</ele>
 <time>2020-03-24T13:33:25Z</time>
</trkpt>
<trkpt lat="34.988073" lon="135.854832">
 <ele>363.2</ele>
 <time>2020-03-24T13:33:26Z</time>
</trkpt>
<trkpt lat="34.988313" lon="135.854864">
 <ele>356.2</ele>
 <time>2020-03-24T13:33:26Z</time>
</trkpt>
<trkpt lat="34.988433" lon="135.854928">
 <ele>354.9</ele>
 <time>2020-03-24T13:33:26Z</time>
</trkpt>
<trkpt lat="34.988562" lon="135.855057">
 <ele>357.8</ele>
 <time>2020-03-24T13:33:26Z</time>
</trkpt>
<trkpt lat="34.988665" lon="135.855218">
 <ele>361.2</ele>
 <time>2020-03-24T13:33:26Z</time>
</trkpt>
<trkpt lat="34.988716" lon="135.855390">
 <ele>362.1</ele>
 <time>2020-03-24T13:33:26Z</time>
</trkpt>
<trkpt lat="34.988802" lon="135.855433">
 <ele>361.7</ele>
 <time>2020-03-24T13:33:26Z</time>
</trkpt>
<trkpt lat="34.988871" lon="135.855486">
 <ele>360.6</ele>
 <time>2020-03-24T13:33:27Z</time>
</trkpt>
<trkpt lat="34.988939" lon="135.855529">
 <ele>359.6</ele>
 <time>2020-03-24T13:33:27Z</time>
</trkpt>
<trkpt lat="34.989042" lon="135.855551">
 <ele>355.4</ele>
 <time>2020-03-24T13:33:27Z</time>
</trkpt>
<trkpt lat="34.989137" lon="135.855551">
 <ele>351.2</ele>
 <time>2020-03-24T13:33:27Z</time>
</trkpt>
<trkpt lat="34.989231" lon="135.855529">
 <ele>347.1</ele>
 <time>2020-03-24T13:33:27Z</time>
</trkpt>
<trkpt lat="34.989394" lon="135.855540">
 <ele>342.2</ele>
 <time>2020-03-24T13:33:27Z</time>
</trkpt>
<trkpt lat="34.989472" lon="135.855583">
 <ele>339</ele>
 <time>2020-03-24T13:33:27Z</time>
</trkpt>
<trkpt lat="34.989532" lon="135.855604">
 <ele>338.2</ele>
 <time>2020-03-24T13:33:27Z</time>
</trkpt>
<trkpt lat="34.989609" lon="135.855647">
 <ele>336.2</ele>
 <time>2020-03-24T13:33:28Z</time>
</trkpt>
<trkpt lat="34.989720" lon="135.855690">
 <ele>331.7</ele>
 <time>2020-03-24T13:33:28Z</time>
</trkpt>
<trkpt lat="34.989789" lon="135.855690">
 <ele>329.3</ele>
 <time>2020-03-24T13:33:28Z</time>
</trkpt>
<trkpt lat="34.989858" lon="135.855733">
 <ele>326</ele>
 <time>2020-03-24T13:33:28Z</time>
</trkpt>
<trkpt lat="34.989961" lon="135.855744">
 <ele>321.8</ele>
 <time>2020-03-24T13:33:28Z</time>
</trkpt>
<trkpt lat="34.990029" lon="135.855787">
 <ele>319.8</ele>
 <time>2020-03-24T13:33:28Z</time>
</trkpt>
<trkpt lat="34.990141" lon="135.855883">
 <ele>313.6</ele>
 <time>2020-03-24T13:33:28Z</time>
</trkpt>
<trkpt lat="34.990270" lon="135.855926">
 <ele>309.6</ele>
 <time>2020-03-24T13:33:29Z</time>
</trkpt>
<trkpt lat="34.990390" lon="135.855980">
 <ele>305</ele>
 <time>2020-03-24T13:33:29Z</time>
</trkpt>
<trkpt lat="34.990467" lon="135.856012">
 <ele>302.5</ele>
 <time>2020-03-24T13:33:29Z</time>
</trkpt>
<trkpt lat="34.990579" lon="135.856098">
 <ele>298.9</ele>
 <time>2020-03-24T13:33:29Z</time>
</trkpt>
<trkpt lat="34.990682" lon="135.856173">
 <ele>296.4</ele>
 <time>2020-03-24T13:33:29Z</time>
</trkpt>
<trkpt lat="34.990768" lon="135.856216">
 <ele>295.1</ele>
 <time>2020-03-24T13:33:29Z</time>
</trkpt>
<trkpt lat="34.990879" lon="135.856323">
 <ele>292.3</ele>
 <time>2020-03-24T13:33:29Z</time>
</trkpt>
<trkpt lat="34.990956" lon="135.856377">
 <ele>290.4</ele>
 <time>2020-03-24T13:33:29Z</time>
</trkpt>
<trkpt lat="34.991059" lon="135.856409">
 <ele>288</ele>
 <time>2020-03-24T13:33:30Z</time>
</trkpt>
<trkpt lat="34.991145" lon="135.856409">
 <ele>286.2</ele>
 <time>2020-03-24T13:33:30Z</time>
</trkpt>
<trkpt lat="34.991240" lon="135.856409">
 <ele>283.1</ele>
 <time>2020-03-24T13:33:30Z</time>
</trkpt>
<trkpt lat="34.991308" lon="135.856441">
 <ele>281.2</ele>
 <time>2020-03-24T13:33:30Z</time>
</trkpt>
<trkpt lat="34.991403" lon="135.856463">
 <ele>276.9</ele>
 <time>2020-03-24T13:33:30Z</time>
</trkpt>
<trkpt lat="34.991506" lon="135.856527">
 <ele>273.9</ele>
 <time>2020-03-24T13:33:30Z</time>
</trkpt>
<trkpt lat="34.991643" lon="135.856645">
 <ele>267.2</ele>
 <time>2020-03-24T13:33:30Z</time>
</trkpt>
<trkpt lat="34.991789" lon="135.856731">
 <ele>259.5</ele>
 <time>2020-03-24T13:33:30Z</time>
</trkpt>
<trkpt lat="34.991926" lon="135.856827">
 <ele>257.6</ele>
 <time>2020-03-24T13:33:31Z</time>
</trkpt>
<trkpt lat="34.992089" lon="135.856924">
 <ele>253.9</ele>
 <time>2020-03-24T13:33:31Z</time>
</trkpt>
<trkpt lat="34.992158" lon="135.856924">
 <ele>252.5</ele>
 <time>2020-03-24T13:33:31Z</time>
</trkpt>
<trkpt lat="34.992304" lon="135.856924">
 <ele>249.7</ele>
 <time>2020-03-24T13:33:31Z</time>
</trkpt>
<trkpt lat="34.992407" lon="135.856913">
 <ele>246</ele>
 <time>2020-03-24T13:33:31Z</time>
</trkpt>
<trkpt lat="34.992570" lon="135.856892">
 <ele>239</ele>
 <time>2020-03-24T13:33:31Z</time>
</trkpt>
<trkpt lat="34.992664" lon="135.856795">
 <ele>233.7</ele>
 <time>2020-03-24T13:33:31Z</time>
</trkpt>
<trkpt lat="34.992776" lon="135.856666">
 <ele>226.5</ele>
 <time>2020-03-24T13:33:31Z</time>
</trkpt>
<trkpt lat="34.992913" lon="135.856473">
 <ele>214.3</ele>
 <time>2020-03-24T13:33:32Z</time>
</trkpt>
<trkpt lat="34.992982" lon="135.856366">
 <ele>207</ele>
 <time>2020-03-24T13:33:32Z</time>
</trkpt>
<trkpt lat="34.993042" lon="135.856280">
 <ele>201.9</ele>
 <time>2020-03-24T13:33:32Z</time>
</trkpt>
<trkpt lat="34.993094" lon="135.856194">
 <ele>198.8</ele>
 <time>2020-03-24T13:33:32Z</time>
</trkpt>
<trkpt lat="34.993162" lon="135.856087">
 <ele>196</ele>
 <time>2020-03-24T13:33:32Z</time>
</trkpt>
<trkpt lat="34.993265" lon="135.856023">
 <ele>195.4</ele>
 <time>2020-03-24T13:33:32Z</time>
</trkpt>
<trkpt lat="34.993334" lon="135.855969">
 <ele>195.5</ele>
 <time>2020-03-24T13:33:32Z</time>
</trkpt>
<trkpt lat="34.993377" lon="135.855948">
 <ele>195</ele>
 <time>2020-03-24T13:33:32Z</time>
</trkpt>
<trkpt lat="34.993428" lon="135.855948">
 <ele>195.1</ele>
 <time>2020-03-24T13:33:32Z</time>
</trkpt>
<trkpt lat="34.993488" lon="135.855958">
 <ele>195.5</ele>
 <time>2020-03-24T13:33:32Z</time>
</trkpt>
<trkpt lat="34.993557" lon="135.856033">
 <ele>193.1</ele>
 <time>2020-03-24T13:33:33Z</time>
</trkpt>
<trkpt lat="34.993626" lon="135.856151">
 <ele>189.9</ele>
 <time>2020-03-24T13:33:33Z</time>
</trkpt>
<trkpt lat="34.993720" lon="135.856184">
 <ele>188.1</ele>
 <time>2020-03-24T13:33:33Z</time>
</trkpt>
<trkpt lat="34.993763" lon="135.856205">
 <ele>186.1</ele>
 <time>2020-03-24T13:33:33Z</time>
</trkpt>
<trkpt lat="34.993789" lon="135.856280">
 <ele>185.1</ele>
 <time>2020-03-24T13:33:33Z</time>
</trkpt>
<trkpt lat="34.993823" lon="135.856409">
 <ele>183.7</ele>
 <time>2020-03-24T13:33:33Z</time>
</trkpt>
<trkpt lat="34.993875" lon="135.856484">
 <ele>178.8</ele>
 <time>2020-03-24T13:33:33Z</time>
</trkpt>
<trkpt lat="34.993918" lon="135.856398">
 <ele>175.4</ele>
 <time>2020-03-24T13:33:33Z</time>
</trkpt>
<trkpt lat="34.993943" lon="135.856323">
 <ele>173.4</ele>
 <time>2020-03-24T13:33:33Z</time>
</trkpt>
<trkpt lat="34.993969" lon="135.856227">
 <ele>172</ele>
 <time>2020-03-24T13:33:33Z</time>
</trkpt>
<trkpt lat="34.993986" lon="135.856130">
 <ele>172.8</ele>
 <time>2020-03-24T13:33:33Z</time>
</trkpt>
<trkpt lat="34.994046" lon="135.856098">
 <ele>167</ele>
 <time>2020-03-24T13:33:34Z</time>
</trkpt>
<trkpt lat="34.994218" lon="135.856066">
 <ele>174.8</ele>
 <time>2020-03-24T13:33:34Z</time>
</trkpt>
<trkpt lat="34.994269" lon="135.856001">
 <ele>177.2</ele>
 <time>2020-03-24T13:33:34Z</time>
</trkpt>
<trkpt lat="34.994278" lon="135.855883">
 <ele>174.7</ele>
 <time>2020-03-24T13:33:34Z</time>
</trkpt>
<trkpt lat="34.994304" lon="135.855754">
 <ele>175.8</ele>
 <time>2020-03-24T13:33:34Z</time>
</trkpt>
<trkpt lat="34.994312" lon="135.855690">
 <ele>174.9</ele>
 <time>2020-03-24T13:33:34Z</time>
</trkpt>
<trkpt lat="34.994381" lon="135.855626">
 <ele>177.5</ele>
 <time>2020-03-24T13:33:34Z</time>
</trkpt>
<trkpt lat="34.994407" lon="135.855529">
 <ele>178.8</ele>
 <time>2020-03-24T13:33:34Z</time>
</trkpt>
<trkpt lat="34.994415" lon="135.855443">
 <ele>178.6</ele>
 <time>2020-03-24T13:33:34Z</time>
</trkpt>
<trkpt lat="34.994433" lon="135.855336">
 <ele>179.6</ele>
 <time>2020-03-24T13:33:34Z</time>
</trkpt>
<trkpt lat="34.994458" lon="135.855218">
 <ele>177.3</ele>
 <time>2020-03-24T13:33:35Z</time>
</trkpt>
<trkpt lat="34.994536" lon="135.855089">
 <ele>180</ele>
 <time>2020-03-24T13:33:35Z</time>
</trkpt>
<trkpt lat="34.994587" lon="135.855003">
 <ele>179.9</ele>
 <time>2020-03-24T13:33:35Z</time>
</trkpt>
<trkpt lat="34.994647" lon="135.854918">
 <ele>181</ele>
 <time>2020-03-24T13:33:35Z</time>
</trkpt>
<trkpt lat="34.994733" lon="135.854789">
 <ele>176.1</ele>
 <time>2020-03-24T13:33:35Z</time>
</trkpt>
<trkpt lat="34.994733" lon="135.854649">
 <ele>174.2</ele>
 <time>2020-03-24T13:33:35Z</time>
</trkpt>
<trkpt lat="34.994733" lon="135.854531">
 <ele>172</ele>
 <time>2020-03-24T13:33:35Z</time>
</trkpt>
<trkpt lat="34.994716" lon="135.854392">
 <ele>174.7</ele>
 <time>2020-03-24T13:33:35Z</time>
</trkpt>
<trkpt lat="34.994733" lon="135.854274">
 <ele>175.3</ele>
 <time>2020-03-24T13:33:35Z</time>
</trkpt>
<trkpt lat="34.994750" lon="135.854167">
 <ele>174.9</ele>
 <time>2020-03-24T13:33:36Z</time>
</trkpt>
<trkpt lat="34.994784" lon="135.854038">
 <ele>174</ele>
 <time>2020-03-24T13:33:36Z</time>
</trkpt>
<trkpt lat="34.994784" lon="135.853898">
 <ele>172.8</ele>
 <time>2020-03-24T13:33:36Z</time>
</trkpt>
<trkpt lat="34.994836" lon="135.853716">
 <ele>171.3</ele>
 <time>2020-03-24T13:33:36Z</time>
</trkpt>
<trkpt lat="34.994793" lon="135.853662">
 <ele>170</ele>
 <time>2020-03-24T13:33:36Z</time>
</trkpt>
<trkpt lat="34.994639" lon="135.853652">
 <ele>162.9</ele>
 <time>2020-03-24T13:33:36Z</time>
</trkpt>
<trkpt lat="34.994527" lon="135.853587">
 <ele>161.2</ele>
 <time>2020-03-24T13:33:36Z</time>
</trkpt>
<trkpt lat="34.994493" lon="135.853340">
 <ele>159.4</ele>
 <time>2020-03-24T13:33:36Z</time>
</trkpt>
<trkpt lat="34.994484" lon="135.853104">
 <ele>158.4</ele>
 <time>2020-03-24T13:33:37Z</time>
</trkpt>
<trkpt lat="34.994381" lon="135.853158">
 <ele>158</ele>
 <time>2020-03-24T13:33:37Z</time>
</trkpt>
</trkseg>
</trk>
</gpx>

